{"data":{"norad_id":62290,"epoch":"2026-09-22T21:55:06.608352Z","epoch_age_seconds":103648,"freshness":"FRESH","line1":"1 62290U 24238A   26265.91327093 -.00000058  00000+0  63094-4 0  9992","line2":"2 62290  59.9159 350.8503 0017397 349.7311  10.3339 13.75233908 89049","mean_motion":13.75233908,"eccentricity":0.0017397,"inclination_deg":59.9159,"raan_deg":350.8503,"arg_perigee_deg":349.7311,"mean_anomaly_deg":10.3339,"bstar":6.3094e-5,"rev_number":8904,"period_min":104.70946008699,"perigee_km":968.0378333359,"apogee_km":993.64265876581,"semimajor_km":7358.9772460509,"source":"CELESTRAK","updated_at":"2026-09-23T09:00:21.345780Z"}}